Regional Weather Roundup
Issued by NWS

Home | Current Version | Previous Version | Graphics & Text | Print | Product List | Glossary On
Versions: 1 2 3 4 5 6 7 8 9 10 11 12 13 14 15 16 17 18 19 20 21 22 23 24 25 26 27 28 29 30 31 32 33 34 35 36 37 38 39 40 41 42 43 44 45 46 47 48 49 50
964
ASUS43 KIND 251159
RWRIN

WEATHER ROUNDUP FOR INDIANA
NATIONAL WEATHER SERVICE INDIANAPOLIS IN
800 AM EDT SUN SEP 25 2016

NOTE: "FAIR" INDICATES FEW OR NO CLOUDS BELOW 12,000 FEET WITH NO
SIGNIFICANT WEATHER AND/OR OBSTRUCTIONS TO VISIBILITY.

* - STATION DOES NOT REPORT WEATHER SUCH AS PRECIPITATION OR FOG.

+ - STATION NOT QUALITY CONTROLLED BY THE NATIONAL WEATHER SERVICE.
    USE DATA WITH CAUTION...ESPECIALLY DEWPOINT AND RELATIVE
    HUMIDITY OBSERVATIONS.

INZ001>003-010>013-019-020-251300-
NORTHWEST INDIANA

CITY           SKY/WX    TMP DP  RH WIND       PRES   REMARKS
GARY /AIRPORT/ PTCLDY    64  55  72 SE12      30.11S

$$

LMZ046-743>745-251300-
SOUTHERN LAKE MICHIGAN

STATION/POSITION TIME  TEMP    WIND        PRES    WAVE
                       AIR SEA DIR/SP/G            HT
                 (UTC) (F)     (DEG/KT/KT) (MB)    (FT)
BURNS HARBOR     1100   63     150/ 15/ 21 1019.6F
MICHIGAN CITY    1100   62     120/ 15/ 21   N/A
5NW MICH CITY    1100   62 67  150/ 12/ 17   N/A     1

$$

INZ004-005-014>016-021>024-251300-
NORTH CENTRAL INDIANA

CITY           SKY/WX    TMP DP  RH WIND       PRES   REMARKS
GOSHEN         CLEAR     58  48  69 SE8       30.16F
6HR MIN TEMP:  57; 6HR MAX TEMP:  61;

PERU/GRISSOM   CLEAR     58  54  86 SE6       30.13S
6HR MIN TEMP:  58; 6HR MAX TEMP:  64;

SOUTH BEND     CLEAR     59  52  77 SE10      30.16S
6HR MIN TEMP:  59; 6HR MAX TEMP:  63;


$$

INZ006>009-017-018-025>027-251300-
NORTHEAST INDIANA

CITY           SKY/WX    TMP DP  RH WIND       PRES   REMARKS
ANGOLA *+        N/A     54  43  66 SE6       30.19R
FORT WAYNE     PTCLDY    55  50  83 E7        30.17R
6HR MIN TEMP:  54; 6HR MAX TEMP:  60;

KENDALLVILLE + CLEAR     55  50  83 E5        30.18S

$$

INZ028-029-035-036-043>045-051>053-251300-
WEST CENTRAL INDIANA

CITY           SKY/WX    TMP DP  RH WIND       PRES   REMARKS
CRAWFORDSVL +  CLEAR     60  60 100 SE3       30.12R
6HR MIN TEMP:  60; 6HR MAX TEMP:  64;

GREENCASTLE +  CLEAR     63  63 100 CALM      30.13R
LAFAYETTE      PTCLDY    60  59  96 E7        30.12R
6HR MIN TEMP:  60; 6HR MAX TEMP:  66;

TERRE HAUTE    CLEAR     65  63  93 E3        30.11R FOG
6HR MIN TEMP:  64; 6HR MAX TEMP:  68;


$$

INZ030>032-037>040-046>048-054>057-064-065-251300-
CENTRAL INDIANA

CITY           SKY/WX    TMP DP  RH WIND       PRES   REMARKS
COLUMBUS       CLEAR     63  63 100 CALM      30.14R
INDIANAPOLIS   CLEAR     64  59  83 E9        30.12S
6HR MIN TEMP:  64; 6HR MAX TEMP:  70;

-EAGLE CREEK   CLEAR     63  58  83 E5        30.12F
6HR MIN TEMP:  62; 6HR MAX TEMP:  69;

MT COMFORT *+  CLEAR     57  57 100 CALM      30.14S
SHELBYVILLE    CLEAR     62  58  86 E5        30.14R
6HR MIN TEMP:  62; 6HR MAX TEMP:  67;


$$

INZ033-034-041-042-049-050-058-059-251300-
EAST CENTRAL INDIANA

CITY           SKY/WX    TMP DP  RH WIND       PRES   REMARKS
MUNCIE         CLEAR     57  54  89 E5        30.15S
6HR MIN TEMP:  57; 6HR MAX TEMP:  63;


$$

INZ060-061-067>069-081>083-085>088-251300-
SOUTHWEST INDIANA

CITY           SKY/WX    TMP DP  RH WIND       PRES   REMARKS
EVANSVILLE     CLEAR     66  64  93 CALM      30.09S FOG
6HR MIN TEMP:  66; 6HR MAX TEMP:  71;

HUNTINGBURG *+   N/A     64  63  94 CALM      30.10R VSB 1/4
6HR MIN TEMP:  64; 6HR MAX TEMP:  70;


$$

INZ062-063-066-070>080-084-089>092-251300-
SOUTH CENTRAL AND SOUTHEAST INDIANA

CITY           SKY/WX    TMP DP  RH WIND       PRES   REMARKS
BLOOMINGTON    CLEAR     67  63  87 E3        30.12R
6HR MIN TEMP:  64; 6HR MAX TEMP:  68;

MADISON *+     CLEAR     64  63  94 NE6       30.15R
SEYMOUR +      CLEAR     64  63  94 CALM      30.13  FOG

$$





USA.gov is the U.S. government's official web portal to all federal, state and local government web resources and services.